DECAYED

STARLINK-2058, 47667 (Decayed)

Orbit data source: Space-Track

STARLINK-2058, 47667 was a payload satellite owned by SpaceX/Seattle (US) in LEO that was launched on Tue, 16 Feb 2021 UTC via an FALCON 9 launch vehicle from the Air Force Eastern Test Range (AFETR). Payload-class satellites include a variety of spacecraft equipped with specific instruments for various scientific and technological missions. These include communications satellites like Starlink; space stations such as the ISS; scientific satellites like the Hubble; Earth observation satellites from companies like Planet Labs, Umbra, and HawkEye 360; GPS; miniature CubeSats for education and research; and military/defense satellites.

Not visible in the next 10 days
Identifier
47667, 2021-012AZ
Orbit
Decayed
Country
Flag of USUS
Related business
Manufacturer
SpaceX/Seattle
Mission
Decayed Commercial Communications
Bus & Motor
STARLINK, Unknown motor
Mass
260 kg wet, ~248 kg dry
Launch date (UTC)
2021-02-16 (5 years ago)
Launch vehicle
FALCON 9
Launch site
Air Force Eastern Test Range (AFETR)
Object type
Payload
Rocket body
Debris
Shape & HBR
Box + 1 Pan, 10.1 m
Radar Cross Section
13.562 m², Large (>1 m²)

Expand to show TLE details & history
Last TLE update: 2 months ago

TLE from 2 months ago
0 STARLINK-2058
1 47667U 21012AZ  26105.10726513  .11061527  12529-4  48241-3 0  9993
2 47667  53.0224 196.6803 0006087 320.0167  40.0431 16.43170990286458
Epoch: 2026-04-15T02:34Z
TLE epoch observation values (Epoch: 2026-04-15T02:34:27.707Z)
Latitude
-0.00006°
Longitude
-45.2091°
Altitude
155.264 km
Speed
7.816 km/s
True Right ascension
13h 06m 43s
True Declination
0° 00' 00"
Sunlit
Object was in full shadow at epoch
Visualization orbit readout
Latitude
Unknown
Longitude
Unknown
Altitude
Unknown
Speed
Unknown
Apparent Right ascension
Unknown
Apparent Declination
Unknown
Sunlit
N/A
Visualization observer readout
Local Sidereal Time
21:39:11
Azimuth
Unknown
Elevation
Unknown
Doppler factor
Unknown
Orbital elements
Apogee altitude
161.651 km
Perigee altitude
153.694 km
Semi-major axis
6,535.81 km
Eccentricity
0.00061
Inclination
53.0224°
RAAN
196.6803°
Arg. of periapsis
320.0167°
True anomaly
40.088°
Mean anomaly
40.0431°
Eccentric anomaly
40.06555°
Mean motion
4.10766 °/min
Orbital period
87.64 mins
BSTAR
0.00048241
Loading maneuver chart data...
Computing Atmospheric mass density...

Documentation

Showing up to 5 results
|